STARLINK-33732, 63575

Orbit data source: Space-Track

STARLINK-33732, 63575 is a payload satellite owned by SpaceX/Seattle (US) in LEO that was launched on Mon, 14 Apr 2025 UTC via an FALCON 9 launch vehicle from the Air Force Eastern Test Range (AFETR). Payload-class satellites include a variety of spacecraft equipped with specific instruments for various scientific and technological missions. These include communications satellites like Starlink; space stations such as the ISS; scientific satellites like the Hubble; Earth observation satellites from companies like Planet Labs, Umbra, and HawkEye 360; GPS; miniature CubeSats for education and research; and military/defense satellites.

Loading next visibility...
Identifier
63575, 2025-076G
Orbit
LEO
Country
Flag of USUS
Related business
Manufacturer
SpaceX/Seattle
Mission
Operational Commercial Communications
Bus & Motor
STARLINK V2MO, Unknown motor
Mass
575 kg wet, ~530 kg dry
Launch date (UTC)
2025-04-14 (7 months ago)
Launch vehicle
FALCON 9
Launch site
Air Force Eastern Test Range (AFETR)
Object type
Payload
Rocket body
Debris
Shape & HBR
Box + 2 Pan, 17.7 m
Radar Cross Section
36.964 m², Large (>1 m²)

Expand to show TLE details & history
Last TLE update: 8 hours ago

TLE from 8 hours ago
0 STARLINK-33732
1 63575U 25076G   25302.49151624  .00035408  00000-0  12887-2 0  9998
2 63575  43.0027 342.7842 0001256 278.9265  81.1444 15.27613382 31764
Epoch: 2025-10-29T11:47Z
TLE epoch observation values (Epoch: 2025-10-29T11:47:47.003Z)
Latitude
-0.00004°
Longitude
127.77443°
Altitude
482.592 km
Speed
7.626 km/s
True Right ascension
22h 51m 08s
True Declination
0° 00' 00"
Sunlit
Object was in full shadow at epoch
Visualization orbit readout
Latitude
Unknown
Longitude
Unknown
Altitude
Unknown
Speed
Unknown
Apparent Right ascension
Unknown
Apparent Declination
Unknown
Sunlit
N/A
Visualization observer readout
Local Sidereal Time
15:34:36
Azimuth
Unknown
Elevation
Unknown
Doppler factor
Unknown
Orbital elements
Apogee altitude
485.756 km
Perigee altitude
484.032 km
Semi-major axis
6,863.031 km
Eccentricity
0.00013
Inclination
43.0027°
RAAN
342.7842°
Arg. of periapsis
278.9265°
True anomaly
81.15862°
Mean anomaly
81.1444°
Eccentric anomaly
81.15151°
Mean motion
3.81741 °/min
Orbital period
94.3 mins
BSTAR
0.0012887
Loading maneuver chart data...
Computing Atmospheric mass density...
Loading historical data...
Loading historical data...
Loading historical data...
Loading historical data...
Loading historical data...
Loading historical data...
Loading historical data...

Documentation

Showing up to 5 results
|